(122) Gerda
ephemeris date magn radius delta ra dec elong phase
Today6 May 202513.83.154 AU3.449 AU07h26m+20°46'64.8°16.8°
Opposition24 Mar 202612.03.175 AU2.178 AU12h16m-01°32'179.0°0.3°
(122) Gerda - 2025-05-06
astro.vanbuitenen.nl


 
-1 year
-1 month
-1 day
Now
+1 day
+1 month
+1 year

The interactive orbit chart above shows the body's path through the solar system and its position at the given date. Green and blue lines are shown perpendicular to the ecliptic plane: Green if the path is above the ecliptic plane, blue if it is below. (Left-click and drag to rotate the view; Right-click and drag to move the view; Use scroll wheel to zoom in our out.)

The orbital elements of Gerda are:

            e (Eccentricity)                : 0.0233148
            a (Semimajor axis)              : 3.2275149
            i (Inclination)                 : 1.64293
            Ω (Longitude of ascending node) : 177.95954
            ω (Argument of perihelion)      : 319.94397
            M (Mean anomaly)                : 349.37709
            Epoch                           : 2025 May 05

            L (Longitude of perihelion)     : 137.91511
            B (Latitude of perihelion)      : -1.05720
            P (Orbital period in years)     : 5.80            
        

The light curve chart below shows the estimated development of the minor planet's magnitude.


The all-sky chart below shows the path of the minor planet over the same period as the light curve. The current position is marked yellow.





The following chart shows the path of the minor planet in the next few days. The field of view is optimized for (~10x50) binoculars and finderscopes. A more printer-friendly version of the same chart can be found below.




Ephemerides:
Date       Time       RA (2000)    DEC (2000)    delta   radius  elong  phase   PA    magn
2025-05-06 00:00 UT   07 26 24.2   +20 46 25     3.449    3.154   64.8   16.8    99   13.8 
2025-05-06 04:34 UT   07 26 37.5   +20 46 02     3.451    3.154   64.6   16.8    99   13.8 
2025-05-07 00:00 UT   07 27 34.0   +20 44 25     3.461    3.154   64.1   16.7    99   13.8 
2025-05-08 00:00 UT   07 28 44.4   +20 42 22     3.474    3.153   63.4   16.6    99   13.8 
2025-05-09 00:00 UT   07 29 55.2   +20 40 15     3.486    3.153   62.7   16.5    99   13.8 
2025-05-10 00:00 UT   07 31 06.5   +20 38 06     3.499    3.153   62.0   16.4    99   13.8 
2025-05-11 00:00 UT   07 32 18.3   +20 35 53     3.511    3.153   61.3   16.3   100   13.8 
2025-05-12 00:00 UT   07 33 30.6   +20 33 37     3.523    3.153   60.6   16.2   100   13.8 
2025-05-13 00:00 UT   07 34 43.3   +20 31 17     3.535    3.153   60.0   16.1   100   13.8 
2025-05-14 00:00 UT   07 35 56.5   +20 28 54     3.547    3.153   59.3   16.0   100   13.8 
2025-05-15 00:00 UT   07 37 10.1   +20 26 28     3.559    3.153   58.6   15.9   100   13.8 
2025-05-16 00:00 UT   07 38 24.2   +20 23 58     3.571    3.153   57.9   15.8   100   13.8 
2025-05-17 00:00 UT   07 39 38.7   +20 21 25     3.583    3.153   57.3   15.7   100   13.8 
2025-05-18 00:00 UT   07 40 53.6   +20 18 49     3.595    3.153   56.6   15.5   100   13.8 
2025-05-19 00:00 UT   07 42 08.9   +20 16 09     3.606    3.153   55.9   15.4   101   13.8 
2025-05-20 00:00 UT   07 43 24.6   +20 13 26     3.618    3.153   55.3   15.3   101   13.8 
2025-05-21 00:00 UT   07 44 40.7   +20 10 39     3.629    3.153   54.6   15.2   101   13.8 
2025-05-22 00:00 UT   07 45 57.2   +20 07 49     3.641    3.153   54.0   15.0   101   13.8 
2025-05-23 00:00 UT   07 47 14.1   +20 04 55     3.652    3.153   53.3   14.9   101   13.8 
2025-05-24 00:00 UT   07 48 31.3   +20 01 58     3.663    3.153   52.6   14.8   101   13.8 
2025-05-25 00:00 UT   07 49 48.9   +19 58 58     3.674    3.153   52.0   14.7   101   13.8 
2025-05-26 00:00 UT   07 51 06.8   +19 55 54     3.685    3.153   51.3   14.5   102   13.8 
2025-05-27 00:00 UT   07 52 25.1   +19 52 46     3.696    3.153   50.7   14.4   102   13.8 
2025-05-28 00:00 UT   07 53 43.7   +19 49 35     3.706    3.153   50.0   14.3   102   13.8 
2025-05-29 00:00 UT   07 55 02.6   +19 46 21     3.717    3.153   49.4   14.1   102   13.8 
2025-05-30 00:00 UT   07 56 21.9   +19 43 03     3.728    3.153   48.7   14.0   102   13.8 
2025-05-31 00:00 UT   07 57 41.4   +19 39 41     3.738    3.153   48.1   13.8   102   13.8 
2025-06-01 00:00 UT   07 59 01.3   +19 36 16     3.748    3.153   47.5   13.7   102   13.8 
2025-06-02 00:00 UT   08 00 21.4   +19 32 48     3.759    3.153   46.8   13.6   102   13.8 
2025-06-03 00:00 UT   08 01 41.8   +19 29 16     3.769    3.153   46.2   13.4   103   13.8 


    Terminology:
            
    delta:  distance between minor planet and earth in AU
    radius: distance between minor planet and sun in AU
    magn:   magnitude (brightness) estimate    
    ra:     right ascension in hours (24h = 360deg)
    dec:    declination in degrees
    elong:  elongation in degrees (angle sun-earth-minor planet)    
    phase:  phase angle in degrees (angle sun-minor planet-earth)        
    AU:     Astronomical Unit (mean distance between earth and sun: 149597870.7 km
    

Orbital elements provided by the MPC (Minor Planet Center).
Calculations by a modified version of AAPlus, a C# implementation of the AA+ project by PJ Naughter from the algorithms presented in the book "Astronomical Algorithms" by Jean Meeus.
NGC2000 dso catalog and star labels from VizieR as provided by the Strasbourg astronomical Data Center.
Tycho2 catalog from the ESO archive.